This is the latest recevied weather packets stored in our database for station/object N5GMJ. If no packets are shown the sender has not sent any weather packets the latest 1 day(s).
| Time | Temp. | Humidity | Pressure | Rain* | Wind** | Luminosity | Snow |
|---|---|---|---|---|---|---|---|
| 1778016792 | 28.33° C | 51% | 1005.8 hPa | 0 mm | 1.34 m/s, 284° | - | - |
| 1778016487 | 27.78° C | 49% | 1006 hPa | 0 mm | 1.79 m/s, 303° | - | - |
| 1778016185 | 27.78° C | 49% | 1005.9 hPa | 0 mm | 2.24 m/s, 309° | - | - |
| 1778015880 | 28.33° C | 49% | 1005.9 hPa | 0 mm | 2.24 m/s, 309° | - | - |
| 1778015579 | 28.33° C | 50% | 1005.7 hPa | 0 mm | 1.79 m/s, 317° | - | - |
| 1778015274 | 28.33° C | 49% | 1005.8 hPa | 0 mm | 2.24 m/s, 308° | - | - |
| 1778014972 | 28.89° C | 46% | 1005.9 hPa | 0 mm | 0.89 m/s, 0° | - | - |
| 1778014669 | 28.89° C | 45% | 1005.9 hPa | 0 mm | 1.34 m/s, 291° | - | - |
| 1778014367 | 29.44° C | 46% | 1005.9 hPa | 0 mm | 3.13 m/s, 318° | - | - |
| 1778014063 | 29.44° C | 45% | 1005.7 hPa | 0 mm | 2.24 m/s, 307° | - | - |
| 1778013761 | 29.44° C | 45% | 1005.7 hPa | 0 mm | 4.47 m/s, 308° | - | - |
| 1778013458 | 30° C | 47% | 1006 hPa | 0 mm | 2.68 m/s, 323° | - | - |
| 1778013155 | 31.11° C | 43% | 1005.8 hPa | 0 mm | 4.02 m/s, 313° | - | - |
| 1778012851 | 32.22° C | 47% | 1005.8 hPa | 0 mm | 2.68 m/s, 311° | - | - |
| 1778012547 | 32.22° C | 45% | 1005.5 hPa | 0 mm | 1.34 m/s, 256° | - | - |
| 1778012243 | 31.11° C | 47% | 1005.9 hPa | 0 mm | 1.34 m/s, 241° | - | - |
| 1778011942 | 32.22° C | 48% | 1005.7 hPa | 0 mm | 0.45 m/s, 236° | - | - |
| 1778011639 | 31.67° C | 46% | 1005.8 hPa | 0 mm | 1.79 m/s, 247° | - | - |
| 1778011336 | 31.67° C | 49% | 1005.9 hPa | 0 mm | 3.13 m/s, 253° | - | - |
| 1778011032 | 31.11° C | 56% | 1006 hPa | 0 mm | 0.89 m/s, 242° | - | - |
| 1778010729 | 31.11° C | 53% | 1006 hPa | 0 mm | 1.79 m/s, 297° | - | - |
| 1778010427 | 30.56° C | 52% | 1006 hPa | 0 mm | 3.13 m/s, 285° | - | - |
| 1778010123 | 30.56° C | 54% | 1006.1 hPa | 0 mm | 1.34 m/s, 256° | - | - |
| 1778009819 | 30.56° C | 57% | 1006 hPa | 0 mm | 1.34 m/s, 299° | - | - |
| 1778009516 | 30.56° C | 56% | 1005.9 hPa | 0 mm | 0.89 m/s, 251° | - | - |
* Rain latest hour (hover to see other rain measurements)
** Current wind speed in m/s (hover to see current wind gust speed)